| time (UTC) | temp C | wind direction | speed KPH | gust KPH | rain 1hr cm | rain 24hr cm | rain mn cm | humidity % | barometer mb |
| 20260510011719 | 21 | 163 | 3.2 | 9.7 | 0.00 | 0.00 | 0.00 | 56 | 1029.2 |
| 20260510010212 | 21 | 249 | 1.6 | 11.3 | 0.00 | 0.00 | 0.00 | 57 | 1029.5 |
| 20260510004714 | 21 | 212 | 4.8 | 11.3 | 0.00 | 0.00 | 0.00 | 58 | 1029.5 |
| 20260510003209 | 20 | 186 | 3.2 | 9.7 | 0.00 | 0.00 | 0.00 | 59 | 1029.4 |
| 20260510001714 | 19 | 182 | 3.2 | 8.0 | 0.00 | 0.00 | 0.00 | 63 | 1029.3 |
| 20260510000212 | 18 | 193 | 3.2 | 11.3 | 0.00 | 0.00 | 0.00 | 65 | 1029.4 |
| 20260509234712 | 17 | 0 | 3.2 | 9.7 | 0.00 | 0.00 | 0.00 | 67 | 1029.2 |
| 20260509233211 | 16 | 124 | 4.8 | 9.7 | 0.00 | 0.00 | 0.00 | 70 | 1029.2 |
| 20260509231712 | 14 | 121 | 3.2 | 8.0 | 0.00 | 0.00 | 0.00 | 75 | 1029.2 |
| 20260509230213 | 12 | 0 | 3.2 | 11.3 | 0.00 | 0.00 | 0.00 | 79 | 1029.1 |
| 20260509224710 | 11 | 123 | 4.8 | 9.7 | 0.00 | 0.00 | 0.00 | 82 | 1029.2 |
| 20260509223213 | 10 | 126 | 3.2 | 11.3 | 0.00 | 0.00 | 0.00 | 84 | 1029.1 |
| 20260509221709 | 8 | 131 | 4.8 | 11.3 | 0.00 | 0.00 | 0.00 | 85 | 1029.0 |
| 20260509220211 | 8 | 0 | 4.8 | 12.9 | 0.00 | 0.00 | 0.00 | 85 | 1028.8 |
| 20260509214711 | 7 | 0 | 4.8 | 14.5 | 0.00 | 0.00 | 0.00 | 86 | 1028.6 |
| 20260509213211 | 7 | 0 | 4.8 | 12.9 | 0.00 | 0.00 | 0.00 | 86 | 1028.5 |
| 20260509211711 | 7 | 147 | 4.8 | 12.9 | 0.00 | 0.00 | 0.00 | 85 | 1028.4 |
| 20260509210217 | 7 | 0 | 4.8 | 17.7 | 0.00 | 0.00 | 0.00 | 85 | 1028.2 |
| 20260509204711 | 7 | 0 | 6.4 | 14.5 | 0.00 | 0.00 | 0.00 | 86 | 1028.0 |
| 20260509203201 | 6 | 155 | 4.8 | 11.3 | 0.00 | 0.00 | 0.00 | 85 | 1027.9 |
| 20260509201656 | 6 | 0 | 3.2 | 8.0 | 0.00 | 0.00 | 0.00 | 85 | 1027.7 |
| 20260509200153 | 6 | 0 | 4.8 | 8.0 | 0.00 | 0.00 | 0.00 | 85 | 1027.4 |
| 20260509194651 | 6 | 0 | 4.8 | 12.9 | 0.00 | 0.00 | 0.00 | 85 | 1027.4 |
| 20260509193153 | 7 | 0 | 3.2 | 12.9 | 0.00 | 0.00 | 0.00 | 85 | 1027.2 |
| 20260509191633 | 7 | 0 | 3.2 | 9.7 | 0.00 | 0.00 | 0.00 | 85 | 1027.0 |
| 20260509190128 | 7 | 0 | 3.2 | 8.0 | 0.00 | 0.00 | 0.00 | 85 | 1026.9 |
| 20260509184628 | 7 | 0 | 3.2 | 8.0 | 0.00 | 0.00 | 0.00 | 85 | 1026.7 |
| 20260509183129 | 7 | 0 | 3.2 | 8.0 | 0.00 | 0.00 | 0.00 | 85 | 1026.6 |
| 20260509181623 | 7 | 162 | 3.2 | 9.7 | 0.00 | 0.00 | 0.00 | 85 | 1026.4 |
| 20260509180113 | 7 | 0 | 3.2 | 9.7 | 0.00 | 0.00 | 0.00 | 85 | 1026.2 |
| 20260509174613 | 7 | 0 | 4.8 | 9.7 | 0.00 | 0.00 | 0.00 | 85 | 1026.2 |
| 20260509173112 | 7 | 146 | 4.8 | 11.3 | 0.00 | 0.00 | 0.00 | 85 | 1026.2 |
| 20260509171613 | 7 | 0 | 4.8 | 9.7 | 0.00 | 0.00 | 0.00 | 85 | 1026.2 |
| 20260509170121 | 7 | 0 | 4.8 | 12.9 | 0.00 | 0.00 | 0.00 | 85 | 1026.2 |
| 20260509164613 | 7 | 0 | 4.8 | 9.7 | 0.00 | 0.00 | 0.00 | 84 | 1026.2 |
| 20260509163112 | 8 | 0 | 3.2 | 8.0 | 0.00 | 0.00 | 0.00 | 84 | 1026.3 |
| 20260509161613 | 8 | 0 | 3.2 | 8.0 | 0.00 | 0.00 | 0.00 | 84 | 1026.4 |
| 20260509160113 | 8 | 0 | 3.2 | 9.7 | 0.00 | 0.00 | 0.00 | 84 | 1026.4 |
| 20260509154613 | 8 | 0 | 4.8 | 14.5 | 0.00 | 0.00 | 0.00 | 83 | 1026.3 |
| 20260509153112 | 8 | 140 | 3.2 | 11.3 | 0.00 | 0.00 | 0.00 | 84 | 1026.2 |
| 20260509151614 | 8 | 0 | 4.8 | 11.3 | 0.00 | 0.00 | 0.00 | 84 | 1026.2 |
| 20260509150112 | 8 | 162 | 4.8 | 14.5 | 0.00 | 0.00 | 0.00 | 84 | 1026.1 |
| 20260509144614 | 8 | 157 | 4.8 | 14.5 | 0.00 | 0.00 | 0.00 | 84 | 1026.1 |
| 20260509143111 | 8 | 169 | 4.8 | 11.3 | 0.00 | 0.00 | 0.00 | 83 | 1026.2 |
| 20260509141613 | 8 | 153 | 4.8 | 11.3 | 0.00 | 0.00 | 0.00 | 83 | 1026.3 |
| 20260509140109 | 9 | 163 | 6.4 | 12.9 | 0.00 | 0.00 | 0.00 | 83 | 1026.2 |
| 20260509134614 | 8 | 0 | 4.8 | 9.7 | 0.00 | 0.00 | 0.00 | 83 | 1026.5 |
| 20260509133111 | 8 | 150 | 4.8 | 11.3 | 0.00 | 0.00 | 0.00 | 83 | 1026.4 |
| 20260509131613 | 9 | 150 | 4.8 | 12.9 | 0.00 | 0.00 | 0.00 | 82 | 1026.4 |
| 20260509130111 | 9 | 150 | 4.8 | 11.3 | 0.00 | 0.00 | 0.00 | 83 | 1026.5 |
| 20260509124613 | 9 | 159 | 4.8 | 9.7 | 0.00 | 0.00 | 0.00 | 82 | 1026.5 |
| 20260509123111 | 9 | 173 | 4.8 | 9.7 | 0.00 | 0.00 | 0.00 | 82 | 1026.6 |
| 20260509121609 | 10 | 159 | 4.8 | 9.7 | 0.00 | 0.00 | 0.00 | 81 | 1026.6 |
| 20260509120112 | 10 | 144 | 4.8 | 9.7 | 0.00 | 0.00 | 0.00 | 82 | 1026.7 |
| 20260509114612 | 10 | 156 | 3.2 | 8.0 | 0.00 | 0.00 | 0.00 | 82 | 1026.7 |
| 20260509113111 | 10 | 135 | 1.6 | 4.8 | 0.00 | 0.00 | 0.00 | 81 | 1026.6 |
| 20260509111610 | 10 | 100 | 0.0 | 0.0 | 0.00 | 0.00 | 0.00 | 81 | 1026.5 |
| 20260509110111 | 10 | 98 | 0.0 | 0.0 | 0.00 | 0.00 | 0.00 | 81 | 1026.5 |
| 20260509104611 | 10 | 97 | 0.0 | 0.0 | 0.00 | 0.00 | 0.00 | 80 | 1026.5 |
| 20260509103111 | 10 | 97 | 0.0 | 0.0 | 0.00 | 0.00 | 0.00 | 79 | 1026.5 |
| 20260509101611 | 11 | 96 | 0.0 | 0.0 | 0.00 | 0.00 | 0.00 | 78 | 1026.2 |
| 20260509100120 | 11 | 0 | 0.0 | 3.2 | 0.00 | 0.00 | 0.00 | 77 | 1026.3 |
| 20260509094612 | 11 | 0 | 1.6 | 3.2 | 0.00 | 0.00 | 0.00 | 77 | 1025.9 |
| 20260509093112 | 12 | 0 | 0.0 | 3.2 | 0.00 | 0.00 | 0.00 | 75 | 1025.8 |
| 20260509091611 | 12 | 0 | 1.6 | 3.2 | 0.00 | 0.00 | 0.00 | 75 | 1025.7 |
| 20260509090109 | 12 | 96 | 0.0 | 0.0 | 0.00 | 0.00 | 0.00 | 73 | 1025.6 |
| 20260509084610 | 13 | 95 | 1.6 | 3.2 | 0.00 | 0.00 | 0.00 | 72 | 1025.4 |
| 20260509083110 | 13 | 95 | 0.0 | 3.2 | 0.00 | 0.00 | 0.00 | 71 | 1025.2 |
| 20260509081616 | 14 | 95 | 1.6 | 3.2 | 0.00 | 0.00 | 0.00 | 70 | 1025.1 |
| 20260509080111 | 15 | 95 | 1.6 | 3.2 | 0.00 | 0.00 | 0.00 | 68 | 1024.8 |
| 20260509074610 | 15 | 95 | 0.0 | 3.2 | 0.00 | 0.00 | 0.00 | 66 | 1024.8 |
| 20260509073109 | 16 | 95 | 1.6 | 6.4 | 0.00 | 0.00 | 0.00 | 65 | 1024.4 |
| 20260509071616 | 17 | 102 | 1.6 | 6.4 | 0.00 | 0.00 | 0.00 | 63 | 1024.4 |
| 20260509070045 | 17 | 0 | 1.6 | 9.7 | 0.00 | 0.00 | 0.00 | 61 | 1024.1 |
| 20260509064536 | 18 | 124 | 6.4 | 16.1 | 0.00 | 0.00 | 0.00 | 60 | 1023.8 |
| 20260509063034 | 18 | 126 | 8.0 | 16.1 | 0.00 | 0.00 | 0.00 | 58 | 1023.7 |
| 20260509061537 | 19 | 101 | 8.0 | 16.1 | 0.00 | 0.00 | 0.00 | 57 | 1023.5 |
| 20260509060035 | 20 | 107 | 8.0 | 20.9 | 0.00 | 0.00 | 0.00 | 55 | 1023.5 |
| 20260509054531 | 21 | 0 | 9.7 | 17.7 | 0.00 | 0.00 | 0.00 | 52 | 1023.2 |
| 20260509053029 | 22 | 63 | 0.0 | 4.8 | 0.00 | 0.00 | 0.00 | 43 | 1023.1 |
| 20260509051536 | 22 | 287 | 1.6 | 9.7 | 0.00 | 0.00 | 0.00 | 44 | 1022.9 |
| 20260509050017 | 22 | 213 | 1.6 | 6.4 | 0.00 | 0.00 | 0.00 | 45 | 1023.0 |
| 20260509044519 | 21 | 131 | 3.2 | 6.4 | 0.00 | 0.00 | 0.00 | 46 | 1023.0 |
| 20260509043019 | 21 | 106 | 1.6 | 4.8 | 0.00 | 0.00 | 0.00 | 49 | 1023.0 |
| 20260509041458 | 21 | 0 | 1.6 | 6.4 | 0.00 | 0.00 | 0.00 | 47 | 1022.9 |
| 20260509035933 | 21 | 0 | 3.2 | 9.7 | 0.00 | 0.00 | 0.00 | 47 | 1022.9 |
| 20260509034434 | 21 | 0 | 3.2 | 8.0 | 0.00 | 0.00 | 0.00 | 47 | 1023.1 |
| 20260509032927 | 21 | 0 | 3.2 | 14.5 | 0.00 | 0.00 | 0.00 | 46 | 1023.1 |
| 20260509031422 | 21 | 0 | 3.2 | 12.9 | 0.00 | 0.00 | 0.00 | 46 | 1023.3 |
| 20260509025923 | 21 | 193 | 3.2 | 11.3 | 0.00 | 0.00 | 0.00 | 47 | 1023.3 |
| 20260509024419 | 21 | 250 | 3.2 | 9.7 | 0.00 | 0.00 | 0.00 | 49 | 1023.5 |
| 20260509022919 | 21 | 215 | 4.8 | 9.7 | 0.00 | 0.00 | 0.00 | 46 | 1023.8 |
| 20260509021412 | 20 | 207 | 6.4 | 12.9 | 0.00 | 0.00 | 0.00 | 47 | 1024.0 |
| 20260509015910 | 20 | 115 | 3.2 | 14.5 | 0.00 | 0.00 | 0.00 | 47 | 1024.3 |
| 20260509014411 | 20 | 234 | 3.2 | 11.3 | 0.00 | 0.00 | 0.00 | 50 | 1024.4 |
| 20260509012909 | 20 | 172 | 6.4 | 12.9 | 0.00 | 0.00 | 0.00 | 51 | 1024.4 |